Home   Weather   Tirana   Past weeks
Flag for Albania

Past Weather in Tirana, Albania — Yesterday and Last 2 Weeks

Now
59 °F

Passing clouds.


Feels Like: 60 °F
Forecast: 78 / 44 °F
Wind: 3 mph from Southeast

Location: Tirana Airport

Current Time: Mar 19, 2019 at 9:19:35 am

Latest Report: Mar 19, 2019 at 8:50 am


Visibility: N/A

Pressure: 30.07 "Hg

Humidity: 63%

Dew Point: 46 °F

Location of TiranaLocation

Past Weather in Tirana — Graph

°F

Tirana Temperature Yesterday

Maximum temperature yesterday: 66 °F (at 1:20 pm)
Minimum temperature yesterday: 46 °F (at 5:20 am)
Average temperature yesterday: 57 °F

High & Low Weather Summary for the Past Weeks

 TemperatureHumidityPressure
High73 °F (Mar 8, 11:50 am)100% (Mar 15, 2:20 am)30.27 "Hg (Mar 15, 2:20 am)
Low30 °F (Mar 13, 5:20 am)19% (Mar 8, 12:20 pm)29.65 "Hg (Mar 12, 5:20 am)
Average53 °F68%30.02 "Hg
* Reported Mar 4 7:20 am — Mar 19 7:20 am, Tirana. Weather by CustomWeather, © 2019

Note: Actual official high and low records may vary slightly from our data, if they occured in-between our weather recording intervals... More about our weather records

Advertising

Tirana Weather History for the Previous 24 Hours

Scroll right to see more
 ConditionsComfort  
Time TempWeatherWind HumidityBarometerVisibility
7:20 am
Tue, Mar 19
48 °FSunny.3 mph94%30.04 "Hg10 mi
6:50 am45 °FSunny.1 mph93%30.04 "Hg10 mi
6:20 am41 °FFog.1 mph93%30.04 "Hg5 mi
5:50 am41 °FFog.1 mph93%30.04 "Hg5 mi
4:50 am43 °FClear.1 mph93%30.04 "Hg10 mi
4:20 am45 °FClear.3 mph93%30.04 "Hg10 mi
3:50 am43 °FClear.3 mph93%30.04 "Hg10 mi
3:20 am45 °FClear.2 mph93%30.04 "Hg10 mi
2:20 am46 °FClear.6 mph93%30.04 "Hg10 mi
1:50 am46 °FClear.2 mph93%30.04 "Hg5 mi
1:20 am46 °FClear.6 mph87%30.04 "Hg10 mi
12:50 am46 °FClear.5 mph93%30.04 "Hg10 mi
12:20 am46 °FClear.5 mph93%30.04 "Hg10 mi
11:50 pm
Mon, Mar 18
46 °FPassing clouds.1 mph93%30.04 "HgN/A
11:20 pm48 °FPassing clouds.1 mph87%30.04 "HgN/A
10:20 pm52 °FPassing clouds.2 mph88%30.04 "HgN/A
9:50 pm54 °FPassing clouds.1 mph82%30.04 "HgN/A
9:20 pm54 °FPassing clouds.1 mph77%30.04 "HgN/A
8:50 pm54 °FPassing clouds.1 mph82%30.04 "HgN/A
8:20 pm55 °FPassing clouds.3 mph77%30.04 "HgN/A
7:20 pm59 °FPassing clouds.1 mph68%30.04 "HgN/A
6:50 pm59 °FPassing clouds.3 mph68%30.04 "HgN/A
6:20 pm61 °FPassing clouds.9 mph63%30.01 "HgN/A
5:50 pm59 °FPassing clouds.10 mph72%30.01 "HgN/A
5:20 pm61 °FPassing clouds.10 mph68%30.01 "HgN/A
4:50 pm61 °FScattered clouds.12 mph68%30.01 "HgN/A
4:20 pm63 °FScattered clouds.12 mph59%30.01 "HgN/A
3:50 pm64 °FScattered clouds.12 mph56%29.98 "HgN/A
3:20 pm66 °FScattered clouds.8 mph49%29.98 "HgN/A
2:50 pm66 °FScattered clouds.8 mph49%29.98 "HgN/A
2:20 pm66 °FScattered clouds.7 mph49%29.98 "HgN/A
1:20 pm66 °FPartly sunny.8 mph52%30.01 "HgN/A
12:50 pm64 °FScattered clouds.8 mph56%30.01 "HgN/A
12:20 pm64 °FPartly sunny.8 mph56%30.01 "HgN/A
11:50 am63 °FBroken clouds.9 mph59%30.04 "HgN/A
11:20 am64 °FPartly sunny.3 mph56%30.04 "HgN/A
10:50 am63 °FBroken clouds.3 mph59%30.04 "HgN/A
10:20 am63 °FBroken clouds.3 mph59%30.04 "HgN/A
9:50 am63 °FScattered clouds.No wind59%30.04 "HgN/A
9:20 am61 °FPassing clouds.1 mph63%30.04 "HgN/A
Weather by CustomWeather, © 2019

See weather overview